Location: Casone le Fosse
(44.6547°N, 12.1103°E)
Time: 03:20:52
(UTC+00:00)

USA 307 - Pass Details

Date: 29 October 2020
Orbit: 569 x 579 km, 54.0° (Epoch: 30 November)

Event Time Altitude Azimuth Distance (km) Brightness Sun altitude
Rises 18:40:14 0° 301° (WNW) 2,786 7.4 -28.2°
Reaches altitude 10° 18:42:36 10° 294° (WNW) 1,883 6.4 -28.6°
Enters shadow 18:45:41 35° 256° (WSW) 941 4.4 -29.2°
